Sigfox identifier Datetime Temperature Humidity SNR
003BB2B6 2018-10-09 08:54:05 20.3 38 14
003BB2B6 2018-10-09 07:45:09 20.3 38 14.1
003BB2B6 2018-10-09 06:36:12 20.3 38 14.1
003BB2B6 2018-10-09 05:27:21 20.3 38 14.1
003BB2B6 2018-10-09 02:00:42 20.2 38 13.8
003BB2B6 2018-10-09 00:51:54 20.3 37 13.8
003BB2B6 2018-10-08 23:43:02 20.2 37 13.9
003BB2B6 2018-10-08 22:34:12 20.2 37 13.9
003BB2B6 2018-10-08 21:25:18 20.2 37 13.8
003BB2B6 2018-10-08 20:16:29 20.2 37 13.8
003BB2B6 2018-10-08 19:07:36 20.2 37 13.9
003BB2B6 2018-10-08 17:58:46 20.1 37 14
003BB2B6 2018-10-08 16:49:59 20.2 37 14
003BB2B6 2018-10-08 15:41:06 20.1 37 12.2
003BB2B6 2018-10-08 12:14:27 19.9 36 12.2
003BB2B6 2018-10-08 11:05:39 19.8 36 12.1
003BB2B6 2018-10-08 07:39:30 19.8 36 11.9
003BB2B6 2018-10-08 05:22:01 19.9 37 12
003BB2B6 2018-10-08 04:13:18 19.9 37 11.9
003BB2B6 2018-10-08 03:04:37 19.9 38 11.9
003BB2B6 2018-10-08 01:55:51 19.9 38 11.9
003BB2B6 2018-10-08 00:47:09 19.9 38 11.8
003BB2B6 2018-10-07 23:38:23 20.1 39 11.6
003BB2B6 2018-10-07 22:29:36 20.1 39 11.5
003BB2B6 2018-10-07 21:20:53 20.1 39 11.3
003BB2B6 2018-10-07 20:12:09 20.2 39 11.5
003BB2B6 2018-10-07 19:03:29 20.2 39 17.3
003BB2B6 2018-10-07 17:54:42 20.2 39 17.2
003BB2B6 2018-10-07 15:37:16 20.2 39 17.2
003BB2B6 2018-10-07 14:28:31 20.2 39 17.3
003BB2B6 2018-10-07 13:19:47 20.2 39 17.3
003BB2B6 2018-10-07 12:11:05 20.2 39 17.3
003BB2B6 2018-10-07 11:02:23 20.2 39 17.3
003BB2B6 2018-10-07 09:53:38 20.2 39 17.3
003BB2B6 2018-10-07 08:44:51 20.2 40 17.3
003BB2B6 2018-10-07 07:36:04 20.2 40 17.3
003BB2B6 2018-10-07 06:27:22 20.4 40 17.3
003BB2B6 2018-10-07 04:09:53 20.4 40 17.3
003BB2B6 2018-10-07 03:01:06 20.4 40 17.3
003BB2B6 2018-10-07 00:43:32 20.4 40 17.3
003BB2B6 2018-10-06 23:34:44 20.4 40 17.2
003BB2B6 2018-10-06 22:26:04 20.4 40 17.2
003BB2B6 2018-10-06 21:17:19 20.4 40 17.2
003BB2B6 2018-10-06 17:51:19 20.5 40 17.2
003BB2B6 2018-10-06 15:33:53 20.6 40 17.2
003BB2B6 2018-10-06 14:25:06 20.6 40 17.2
003BB2B6 2018-10-06 13:16:22 20.6 40 17.3
003BB2B6 2018-10-06 12:07:37 20.6 40 17.3
003BB2B6 2018-10-06 10:58:54 20.6 40 17.3
003BB2B6 2018-10-06 08:41:33 20.6 40 17.3
003BB2B6 2018-10-06 07:32:52 20.6 41 17.3
003BB2B6 2018-10-06 06:24:11 20.7 41 11.6
003BB2B6 2018-10-06 05:15:30 20.7 41 11.5
003BB2B6 2018-10-06 04:06:50 20.8 41 11.4
003BB2B6 2018-10-06 01:49:20 20.8 42 11.8
003BB2B6 2018-10-06 00:40:33 20.8 42 12.3
003BB2B6 2018-10-05 23:31:46 20.8 42 13.8
003BB2B6 2018-10-05 21:14:11 20.9 42 13.8
003BB2B6 2018-10-05 20:05:25 21 42 13.8
003BB2B6 2018-10-05 18:56:39 21 42 13.9
003BB2B6 2018-10-05 17:47:57 21 42 14.1
003BB2B6 2018-10-05 15:30:35 20.9 41 14.1
003BB2B6 2018-10-05 14:21:53 20.8 39 14.2
003BB2B6 2018-10-05 13:13:09 20.8 38 14.4
003BB2B6 2018-10-05 12:04:24 20.8 37 14.5
003BB2B6 2018-10-05 10:55:35 20.6 35 14.8
003BB2B6 2018-10-05 08:38:02 20.4 33 15
003BB2B6 2018-10-05 06:20:26 20.4 32 15.2
003BB2B6 2018-10-05 05:11:42 20.4 32 15.4
003BB2B6 2018-10-05 04:02:56 20.6 32 15.6
003BB2B6 2018-10-05 02:54:09 20.6 33 15.8
003BB2B6 2018-10-05 01:45:27 20.6 33 16.1
003BB2B6 2018-10-04 23:27:58 20.8 33 16.4
003BB2B6 2018-10-04 22:19:15 20.8 33 16.7
003BB2B6 2018-10-04 21:10:36 20.8 32 17.1
003BB2B6 2018-10-04 18:53:14 20.9 32 17.6
003BB2B6 2018-10-04 16:35:43 20.8 32 18.1
003BB2B6 2018-10-04 15:26:56 20.8 31 19
003BB2B6 2018-10-04 14:18:16 20.6 32 20.1
003BB2B6 2018-10-04 13:09:34 20.5 32 21
003BB2B6 2018-10-04 12:00:50 20.6 34 22.9
003BB2B6 2018-10-04 09:43:31 20.2 47 0